Eielson AFB, AK

2:53 PM AKST on December 03, 2016 (GMT -0900)
Eielson Air Force Base

Weather History for PAEI - April, 2013

Change the Weather History Date:

Thursday, April 11, 2013

  Actual Average Record
Temperature  
Mean Temperature -3 °F -  
Max Temperature 13 °F 36 °F 55 °F (1997)
Min Temperature -19 °F 14 °F -19 °F (2013)
Degree Days  
Heating Degree Days 68    
Moisture  
Dew Point -12 °F    
Average Humidity 63    
Maximum Humidity 79    
Minimum Humidity 41    
Precipitation  
Precipitation 0.00 in - - ()
Sea Level Pressure  
Sea Level Pressure 30.16 in    
Wind  
Wind Speed 4 mph (SSW)    
Max Wind Speed 8 mph    
Max Gust Speed -    
Visibility 9 miles    
Events      
Averages and records for this station are not official NWS values.
T = Trace of Precipitation, MM = Missing Value Source: NWS Daily Summary

Daily Weather History Graph

Daily Weather History Graph

Search for Another Location

Airport or City:

Trip Planner

Search our weather history database for the weather conditions in past years. The results will help you decide how hot, cold, wet, or windy it might be!

Date:

Astronomy

Apr. 11, 2013 Rise Set
Actual Time 6:27 AM AKDT 9:13 PM AKDT
Civil Twilight 5:32 AM AKDT 10:08 PM AKDT
Nautical Twilight 4:14 AM AKDT 11:28 PM AKDT
Astronomical Twilight 2:21 AM AKDT 1:16 AM AKDT
Moon 6:30 AM AKDT (4/11) 11:46 PM AKDT (4/11)
Length of Visible Light 16h 36m
Length of Day
14h 46m
New Moon, 2% of the Moon is Illuminated
Apr 11
New Moon
Apr 18
First Quarter
Apr 25
Full
May 2
Last Quarter
May 9
New

Hourly Weather History & Observations

Time (AKDT) Temp. Windchill Dew Point Humidity Pressure Visibility Wind Dir Wind Speed Gust Speed Precip Events Conditions
12:55 AM -11.4 °F -26.7 °F -16.2 °F 79% 30.03 in 10.0 mi SSE 6.9 mph - N/A   Clear
1:55 AM -12.5 °F -24.4 °F -17.7 °F 78% 30.05 in 10.0 mi South 4.6 mph - N/A   Clear
2:55 AM -13.4 °F -27.4 °F -18.6 °F 77% 30.06 in 10.0 mi Variable 5.8 mph - N/A   Clear
3:55 AM -15.5 °F -25.6 °F -20.9 °F 77% 30.08 in 10.0 mi SSE 3.5 mph - N/A   Clear
4:55 AM -18.8 °F - -24.5 °F 75% 30.09 in 10.0 mi Calm Calm - N/A   Clear
5:55 AM -18.8 °F - -24.9 °F 74% 30.11 in 2.0 mi Calm Calm - N/A   Haze
6:04 AM -18.4 °F - -23.8 °F 76% 30.11 in 3.0 mi Calm Calm - N/A   Haze
6:55 AM -19.8 °F - -26.0 °F 73% 30.12 in 10.0 mi Calm Calm - N/A   Clear
7:55 AM -18.2 °F - -24.3 °F 74% 30.14 in 10.0 mi Calm Calm - N/A   Clear
8:55 AM -10.3 °F - -15.5 °F 78% 30.15 in 10.0 mi Calm Calm - N/A   Clear
9:55 AM -4.0 °F - -9.6 °F 77% 30.17 in 10.0 mi Calm Calm - N/A   Clear
10:55 AM 5.9 °F -5.8 °F -9.2 °F 50% 30.17 in 10.0 mi Variable 6.9 mph - N/A   Clear
11:55 AM 7.9 °F - -6.0 °F 53% 30.18 in 10.0 mi Calm Calm - N/A   Scattered Clouds
12:55 PM 10.6 °F - -4.4 °F 51% 30.18 in 10.0 mi Calm Calm - N/A   Clear
1:55 PM 11.3 °F 1.9 °F -2.7 °F 53% 30.19 in 10.0 mi Variable 5.8 mph - N/A   Clear
2:55 PM 11.5 °F - -4.9 °F 48% 30.19 in 10.0 mi Calm Calm - 0.00 in   Clear
3:55 PM 12.6 °F 2.2 °F -6.7 °F 42% 30.19 in 10.0 mi Variable 6.9 mph - N/A   Partly Cloudy
4:55 PM 12.7 °F 1.4 °F -7.2 °F 41% 30.19 in 10.0 mi WNW 8.1 mph - N/A   Mostly Cloudy
5:55 PM 13.5 °F 2.2 °F -5.6 °F 43% 30.19 in 10.0 mi West 8.1 mph - N/A   Scattered Clouds
6:55 PM 12.9 °F 6.9 °F -5.3 °F 44% 30.20 in 10.0 mi Variable 3.5 mph - N/A   Clear
7:55 PM 12.7 °F 5.0 °F -5.3 °F 45% 30.21 in 10.0 mi Variable 4.6 mph - N/A   Partly Cloudy
8:55 PM 11.1 °F - -3.1 °F 53% 30.23 in 10.0 mi Calm Calm - N/A   Partly Cloudy
9:55 PM 2.5 °F - -5.4 °F 70% 30.25 in 10.0 mi Calm Calm - N/A   Partly Cloudy
10:55 PM -1.8 °F -9.9 °F -9.2 °F 71% 30.26 in 10.0 mi Variable 3.5 mph - N/A   Mostly Cloudy
11:55 PM -2.4 °F -14.4 °F -9.6 °F 71% 30.27 in 10.0 mi South 5.8 mph - N/A   Scattered Clouds